Location: Newark
(30.0333°N, 31.2167°E)
Time: 16:35:34
(UTC+00:00)

Tiros 1 - Pass Details

Date: 27 January 2020
Orbit: 630 x 664 km, 48.4° (Epoch: 16 February)

Event Time Altitude Azimuth Distance (km) Brightness Sun altitude
Rises 10:08:30 0° 263° (W) 2,921 10.6 41.4°
Reaches altitude 10° 10:11:14 10° 278° (W) 2,020 9.7 41.4°
Maximum altitude 10:14:54 23° 331° (NNW) 1,376 8.7 41.4°
Drops below altitude 10° 10:18:37 10° 23° (NNE) 2,041 9.4 41.4°
Sets 10:21:24 0° 38° (NE) 2,959 10.2 41.3°
